Location: York
(31.8935°S, 116.7682°E)
Time: 13:53:16
(UTC+08:00)

Hubble Space Telescope - Visible Passes

Search period start: 04 August 2020 00:00
Search period end: 14 August 2020 00:00
Orbit: 536 x 540 km, 28.5° (Epoch: 03 August)

Date Brightness Start Highest point End Pass type
(mag) Time Alt. Az. Time Alt. Az. Time Alt. Az.
04 Aug 2.2 18:54:43 10° NW 18:58:12 26° NNE 18:59:27 22° NE visible
05 Aug 2.0 18:43:46 10° NW 18:47:26 30° NNE 18:49:27 20° ENE visible
05 Aug 3.8 20:24:18 10° WNW 20:24:47 13° WNW 20:24:47 13° WNW visible
06 Aug 1.8 18:32:53 10° NW 18:36:41 35° NNE 18:39:25 16° ENE visible
06 Aug 3.4 20:13:35 10° WNW 20:14:45 18° WNW 20:14:45 18° WNW visible
07 Aug 1.7 18:22:03 10° WNW 18:25:57 40° NNE 18:29:23 13° ENE visible
07 Aug 2.9 20:02:51 10° WNW 20:04:43 24° WNW 20:04:43 24° WNW visible
08 Aug 1.5 18:11:15 10° WNW 18:15:13 44° N 18:19:11 10° E visible
08 Aug 2.4 19:52:09 10° W 19:54:41 33° WNW 19:54:41 33° WNW visible
09 Aug 1.5 18:00:27 10° WNW 18:04:29 48° N 18:08:30 10° E visible
09 Aug 1.8 19:41:27 10° W 19:44:40 42° NW 19:44:40 42° NW visible
10 Aug 1.5 19:30:46 10° W 19:34:40 45° NNW 19:34:40 45° NNW visible
11 Aug 1.6 19:20:06 10° W 19:24:01 40° N 19:24:43 37° NNE visible
12 Aug 1.9 19:09:26 10° W 19:13:16 36° NNW 19:14:49 26° NNE visible
13 Aug 2.2 18:58:50 10° WNW 19:02:31 31° NNW 19:05:00 17° NE visible
